[[{"header":{"parameterUnit":"m.s-1","parameterCategory":1,"la1":30.2991,"la2":30.254,"lo1":-89.0895,"lo2":-89.0444,"dy":0.0017,"dx":0.0017,"nx":28,"ny":28,"refTime":"2023-08-24T03:00:00:Z","depth":0,"parameterNumber":2,"parameterNumberName":"U-component_of_WINDS"},"data":[0,0,0,0,0,0,0,0,0,0,0,0,0,0,0,0,0,0,0,0,0,0,0,0,0,0,0,0,0,0,0,0,0,0,0,0,0,0,0,0,0,0,0,0,0,0,0,0,0,0,0,0,0,0,0,0,0,0,-1.9257,-1.9257,0,-1.9277,-1.9277,-1.9278,-1.9259,-1.9258,-1.9257,-1.9256,-1.9281,-1.9282,-1.9283,0,0,0,0,0,0,0,0,0,0,0,0,0,-1.9208,-1.9209,-1.9257,-1.9257,-1.9258,-1.9277,-1.9277,-1.9278,-1.9259,-1.9258,-1.9257,-1.9256,-1.928,-1.9282,-1.9283,0,0,0,0,0,0,0,0,0,0,0,0,0,-1.9229,-1.9209,-1.9257,-1.925,-1.925,-1.9277,-1.9277,-1.9278,-1.9259,-1.9258,-1.9257,-1.9256,-1.928,-1.9282,-1.9284,-1.9319,0,0,-1.929,-1.9291,0,0,0,0,0,0,0,0,-1.9227,-1.923,-1.9251,-1.9251,-1.9251,-1.9264,-1.9269,-1.9292,-1.9259,-1.9256,-1.9256,-1.9255,-1.9276,-1.9279,-1.9285,-1.9321,-1.9322,-1.929,-1.9291,-1.9292,-1.9293,0,0,0,0,0,0,0,-1.9226,-1.923,-1.9265,-1.9252,-1.9251,-1.9248,-1.925,-1.9273,-1.9272,-1.9256,-1.9255,-1.9257,-1.9276,-1.9283,-1.9285,-1.9322,-1.929,-1.9292,-1.9293,-1.9294,-1.939,-1.9391,0,0,0,0,0,0,-1.9225,-1.9228,-1.9265,-1.9266,-1.9236,-1.925,-1.9252,-1.9261,-1.9272,-1.9273,-1.9258,-1.9256,-1.928,-1.9283,-1.9286,-1.933,-1.9292,-1.9294,-1.9295,-1.9389,-1.939,-1.9392,0,0,0,0,0,0,-1.9224,-1.9228,-1.9264,-1.9247,-1.9251,-1.9252,-1.9262,-1.9262,-1.9269,-1.9273,-1.9274,-1.9265,-1.9279,-1.9283,-1.9311,-1.933,-1.9295,-1.9297,-1.9387,-1.9389,-1.9391,-1.9416,0,0,0,0,0,0,-1.9222,-1.9228,-1.924,-1.9247,-1.9252,-1.9287,-1.9264,-1.9263,-1.9272,-1.927,-1.928,-1.9281,-1.9279,-1.9308,-1.9313,-1.9332,-1.9299,-1.9385,-1.9388,-1.939,-1.9414,-1.9419,-1.9423,0,0,0,0,0,-1.9221,-1.9247,-1.9241,-1.9245,-1.9267,-1.9288,-1.9291,-1.9287,-1.9274,-1.9287,-1.929,-1.928,-1.9327,-1.9312,-1.9317,-1.9337,-1.9384,-1.9387,-1.939,-1.9412,-1.9418,-1.9423,0,0,0,0,0,0,-1.9243,-1.9248,-1.9241,-1.927,-1.9279,-1.9285,-1.9301,-1.9294,-1.9307,-1.9305,-1.93,-1.9303,-1.9333,-1.9338,-1.932,-1.9373,-1.9354,-1.9358,-1.9368,-1.9374,-1.9379,-1.9377,-1.93,0,0,0,0,0,-1.9251,-1.9267,-1.927,-1.9296,-1.93,-1.93,-1.9309,-1.9305,-1.9315,-1.9319,-1.9324,-1.9335,-1.9352,-1.9364,-1.938,-1.9415,-1.9418,-1.9431,-1.9436,-1.944,-1.9444,-1.9464,-1.9471,-1.9401,-1.9401,-1.9401,0,0,-1.9269,-1.9273,-1.9283,-1.9301,-1.9307,-1.9324,-1.9303,-1.9323,-1.9336,-1.9322,-1.9349,-1.9353,-1.9365,-1.9397,-1.9412,-1.9402,-1.9464,-1.9444,-1.9447,-1.9448,-1.9468,-1.9475,-1.948,-1.9403,-1.9403,-1.9403,0,0,-1.9309,-1.9314,-1.9336,-1.9343,-1.9352,-1.9352,-1.9357,-1.9365,-1.9367,-1.9394,-1.9384,-1.9401,-1.943,-1.944,-1.9448,-1.9494,-1.9486,-1.95,-1.9525,-1.9545,-1.955,-1.9555,-1.9572,-1.9579,-1.9504,-1.9504,-1.9504,0,-1.933,-1.9354,-1.9349,-1.9368,-1.9377,-1.9364,-1.9388,-1.9395,-1.941,-1.9417,-1.9406,-1.9444,-1.9451,-1.9486,-1.9497,-1.9504,-1.9512,-1.9498,-1.9549,-1.9554,-1.9559,-1.9575,-1.9582,-1.9505,-1.9505,-1.9505,-1.9505,0,-1.938,-1.9398,-1.9415,-1.9428,-1.9439,-1.9461,-1.946,-1.9471,-1.9467,-1.9469,-1.9497,-1.9505,-1.9524,-1.9532,-1.9528,-1.9567,-1.9561,-1.955,-1.953,-1.9567,-1.9583,-1.9589,-1.9507,-1.9507,-1.9506,-1.9506,0,0,-1.9435,-1.9445,-1.9452,-1.9458,-1.9469,-1.9483,-1.9505,-1.9522,-1.9532,-1.9544,-1.9563,-1.9589,-1.9579,-1.9589,-1.9587,-1.9604,-1.9642,-1.9592,-1.9592,-1.9601,-1.9687,-1.9695,-1.9702,-1.9637,-1.9638,-1.9639,-1.9686,0,-1.9477,-1.9513,-1.9509,-1.9545,-1.9561,-1.955,-1.957,-1.9579,-1.9582,-1.9598,-1.9602,-1.9621,-1.9606,-1.9612,-1.9629,-1.9634,-1.9659,-1.963,-1.9657,-1.9658,-1.9654,-1.971,-1.9719,-1.9762,-1.9692,-1.9693,-1.9694,0,-1.953,-1.9542,-1.9579,-1.9587,-1.9594,-1.9612,-1.9627,-1.9642,-1.9654,-1.9655,-1.9666,-1.9661,-1.9685,-1.9666,-1.97,-1.9681,-1.9692,-1.9696,-1.9698,-1.97,-1.9678,-1.9715,-1.9776,-1.9783,-1.9703,-1.9702,-1.9702,0,-1.9567,-1.9593,-1.9618,-1.9624,-1.9635,-1.9647,-1.9653,-1.9663,-1.9674,-1.9688,-1.9695,-1.9713,-1.9723,-1.9737,-1.9738,-1.9723,-1.9774,-1.9754,-1.9777,-1.9777,-1.9788,-1.9787,-1.9852,-1.9794,-1.9794,-1.9794,-1.9793,0,-1.9614,-1.9637,-1.9635,-1.9651,-1.9678,-1.9674,-1.9701,-1.9705,-1.9714,-1.9732,-1.9724,-1.9742,-1.9741,-1.976,-1.9761,-1.979,-1.9794,-1.9797,-1.9797,-1.9798,-1.9798,-1.9805,-1.9802,-1.9795,-1.9795,-1.9795,-1.9794,0,-1.966,-1.9659,-1.9687,-1.9695,-1.9697,-1.9717,-1.9724,-1.974,-1.9742,-1.9765,-1.9771,-1.9775,-1.9796,-1.9798,-1.9823,-1.9824,-1.986,-1.9856,-1.9855,-1.9855,-1.9878,-1.9876,-1.995,-1.9961,-1.9895,-1.9896,-1.9896,0,-1.969,-1.9708,-1.9717,-1.9728,-1.9734,-1.9751,-1.9762,-1.976,-1.9772,-1.9787,-1.9801,-1.9822,-1.9838,-1.9873,-1.9879,-1.9899,-1.9896,-1.9921,-1.9899,-1.99,-1.9898,-1.9897,-1.9899,-1.9925,-1.9926,-1.9927,-1.9927,0,-1.9745,-1.9744,-1.9758,-1.9774,-1.9787,-1.9799,-1.981,-1.982,-1.9819,-1.9834,-1.9854,-1.9867,-1.9892,-1.9913,-1.9933,-1.994,-1.9935,-1.9934,-1.994,-1.9942,-1.9941,-1.9943,-1.9867,-1.9932,-1.9932,-1.9931,-1.9931,-1.9931,-1.9785,-1.98,-1.9809,-1.9827,-1.9835,-1.9846,-1.9861,-1.9865,-1.9882,-1.9902,-1.99,-1.9924,-1.9936,-1.9962,-1.9971,-1.9991,-1.9983,-1.9992,-1.9994,-1.9997,-2.0,-1.9937,-1.9994,-1.9994,-1.9994,-1.9994,-1.9994,0,-1.9839,-1.9845,-1.986,-1.9876,-1.9891,-1.9882,-1.9895,-1.9908,-1.9928,-1.994,-1.9955,-1.9981,-2.0001,-2.0009,-2.003,-2.0045,-2.0043,-2.005,-2.0049,-2.0052,-2.0005,-1.9998,-2.0051,-2.0051,-2.0051,-2.0051,-2.0051,-2.0051,-1.9869,-1.9895,-1.9896,-1.9927,-1.9932,-1.9954,-1.9962,-1.9973,-1.9982,-2.001,-2.0027,-2.0031,-2.0042,-2.0064,-2.0083,-2.0085,-2.0094,-2.0103,-2.0104,-2.006,-2.0055,-2.0049,-2.0042,-2.0104,-2.0105,-2.0149,-2.0149,-2.015]},{"header":{"parameterUnit":"m.s-1","parameterCategory":1,"la1":30.2991,"la2":30.254,"lo1":-89.0895,"lo2":-89.0444,"dy":0.0017,"dx":0.0017,"nx":28,"ny":28,"refTime":"2023-08-24T03:00:00:Z","depth":0,"parameterNumber":3,"parameterNumberName":"V-component_of_WINDS"},"data":[0,0,0,0,0,0,0,0,0,0,0,0,0,0,0,0,0,0,0,0,0,0,0,0,0,0,0,0,0,0,0,0,0,0,0,0,0,0,0,0,0,0,0,0,0,0,0,0,0,0,0,0,0,0,0,0,0,0,4.8277,4.8277,0,4.8285,4.8285,4.8285,4.8293,4.8293,4.8293,4.8293,4.8296,4.8296,4.8296,0,0,0,0,0,0,0,0,0,0,0,0,0,4.8267,4.8267,4.8277,4.8277,4.8277,4.8285,4.8285,4.8285,4.8293,4.8293,4.8293,4.8293,4.8296,4.8296,4.8296,0,0,0,0,0,0,0,0,0,0,0,0,0,4.8272,4.8267,4.8277,4.8282,4.8283,4.8285,4.8285,4.8285,4.8293,4.8293,4.8293,4.8293,4.8296,4.8296,4.8296,4.8292,0,0,4.8296,4.8296,0,0,0,0,0,0,0,0,4.8272,4.8272,4.8281,4.8282,4.8282,4.8288,4.8282,4.8287,4.8293,4.8289,4.8293,4.8293,4.8293,4.8293,4.8294,4.8292,4.8292,4.8296,4.8296,4.8296,4.8296,0,0,0,0,0,0,0,4.8271,4.8272,4.828,4.8281,4.8282,4.8283,4.8284,4.8283,4.8289,4.8289,4.829,4.8291,4.8293,4.8294,4.8294,4.8292,4.8296,4.8296,4.8296,4.8296,4.8288,4.8288,0,0,0,0,0,0,4.8271,4.8272,4.828,4.828,4.8278,4.8283,4.8284,4.8286,4.829,4.829,4.8291,4.8291,4.8294,4.8294,4.8294,4.829,4.8296,4.8296,4.8296,4.8288,4.8288,4.8288,0,0,0,0,0,0,4.8271,4.8271,4.8279,4.8276,4.8277,4.8283,4.8285,4.8286,4.8287,4.8291,4.8292,4.829,4.8294,4.8294,4.8293,4.8291,4.8296,4.8296,4.8289,4.8288,4.8288,4.8282,0,0,0,0,0,0,4.827,4.8271,4.827,4.8276,4.8277,4.8279,4.8285,4.8286,4.8287,4.8288,4.8291,4.8291,4.8294,4.8293,4.8293,4.8291,4.8295,4.8289,4.8289,4.8288,4.8283,4.8282,4.8281,0,0,0,0,0,4.827,4.8267,4.827,4.8271,4.8276,4.8279,4.8279,4.8284,4.8287,4.8286,4.8289,4.8291,4.8291,4.8293,4.8293,4.829,4.8289,4.8289,4.8288,4.8283,4.8282,4.8281,0,0,0,0,0,0,4.8258,4.8267,4.8271,4.827,4.8274,4.828,4.8278,4.8283,4.8284,4.8284,4.8289,4.8289,4.8288,4.8289,4.8291,4.8287,4.8291,4.829,4.8286,4.8286,4.8285,4.8284,4.8295,0,0,0,0,0,4.8256,4.8258,4.8266,4.8264,4.8266,4.8272,4.8273,4.8277,4.828,4.8281,4.8283,4.8285,4.8286,4.8286,4.8286,4.8283,4.8284,4.8282,4.8281,4.828,4.828,4.8279,4.8278,4.8287,4.8287,4.8287,0,0,4.825,4.8256,4.8256,4.8262,4.8265,4.8266,4.8273,4.8273,4.8274,4.828,4.828,4.8282,4.8284,4.8283,4.8282,4.8284,4.8278,4.828,4.8279,4.8279,4.8279,4.8278,4.8277,4.8287,4.8287,4.8287,0,0,4.8241,4.8245,4.8245,4.8249,4.8255,4.8259,4.8259,4.8265,4.8268,4.8268,4.8273,4.8274,4.8274,4.8276,4.8277,4.8272,4.8274,4.8271,4.8267,4.8267,4.8266,4.8265,4.8264,4.8263,4.8271,4.8271,4.8271,0,4.8232,4.8236,4.8244,4.8245,4.8248,4.8256,4.8256,4.8258,4.8263,4.8264,4.8267,4.8269,4.8271,4.827,4.827,4.827,4.827,4.8271,4.8266,4.8265,4.8265,4.8263,4.8263,4.8271,4.8271,4.8271,4.8271,0,4.8226,4.8229,4.8228,4.8235,4.8237,4.8237,4.8245,4.8246,4.8251,4.8255,4.8255,4.8259,4.8261,4.8261,4.8264,4.8261,4.8262,4.8265,4.8268,4.8264,4.8262,4.8262,4.827,4.827,4.827,4.827,0,0,4.8207,4.8221,4.8221,4.8225,4.8233,4.8234,4.8235,4.824,4.8241,4.8245,4.8245,4.8247,4.8251,4.8252,4.8255,4.8255,4.8252,4.8258,4.8258,4.8257,4.825,4.8247,4.8247,4.8254,4.8254,4.8254,4.825,0,4.8199,4.8204,4.8212,4.8213,4.8216,4.8224,4.8226,4.823,4.8235,4.8237,4.8241,4.8243,4.8247,4.8248,4.8248,4.8252,4.825,4.8252,4.8254,4.8254,4.8253,4.8246,4.8243,4.8239,4.8249,4.8249,4.8249,0,4.819,4.8196,4.8198,4.8208,4.8209,4.821,4.8216,4.8218,4.8224,4.8227,4.823,4.8235,4.8236,4.824,4.8242,4.8244,4.8245,4.8247,4.8247,4.8247,4.8251,4.8246,4.8238,4.8237,4.8248,4.8248,4.8248,0,4.8177,4.8185,4.8188,4.8191,4.8202,4.8203,4.8208,4.8214,4.8217,4.8221,4.8223,4.8227,4.8228,4.8231,4.8237,4.8239,4.8238,4.8242,4.8241,4.824,4.8239,4.8239,4.8231,4.824,4.824,4.824,4.824,0,4.8167,4.8168,4.8183,4.8184,4.8186,4.8195,4.8196,4.8201,4.8207,4.821,4.8217,4.8219,4.8226,4.8229,4.8233,4.8235,4.8235,4.8237,4.8238,4.8237,4.8236,4.8237,4.8237,4.824,4.824,4.824,4.824,0,4.8152,4.8162,4.8166,4.8178,4.8181,4.8181,4.8191,4.8192,4.8198,4.8201,4.8202,4.8211,4.8215,4.8221,4.8226,4.8229,4.8229,4.8231,4.8228,4.8229,4.8227,4.8227,4.8219,4.8218,4.8228,4.8228,4.8228,0,4.8145,4.8147,4.8159,4.8163,4.8168,4.8172,4.8176,4.8186,4.8189,4.8197,4.8198,4.8202,4.8207,4.8212,4.8218,4.8222,4.8224,4.8221,4.8224,4.8223,4.8224,4.8224,4.8225,4.822,4.822,4.822,4.822,0,4.8132,4.8137,4.8143,4.8151,4.8156,4.8162,4.8169,4.817,4.8181,4.8185,4.819,4.8193,4.82,4.8204,4.821,4.8213,4.8218,4.8219,4.8219,4.8217,4.8215,4.8216,4.8226,4.8219,4.8219,4.8219,4.8219,4.8219,4.8121,4.8123,4.8133,4.814,4.8146,4.8153,4.8156,4.8163,4.8168,4.8176,4.8181,4.8186,4.8193,4.8201,4.8205,4.8208,4.821,4.821,4.821,4.8209,4.8209,4.8215,4.8209,4.8209,4.8209,4.8209,4.8209,0,4.8108,4.8116,4.8122,4.8132,4.8138,4.8144,4.8152,4.8156,4.8161,4.8168,4.8173,4.8179,4.8184,4.8192,4.8198,4.8199,4.8201,4.82,4.82,4.8201,4.8206,4.8206,4.8198,4.8198,4.8198,4.8198,4.8198,4.8198,4.8102,4.8107,4.8114,4.8122,4.813,4.8136,4.814,4.8146,4.8152,4.816,4.8165,4.8171,4.8178,4.8185,4.819,4.8192,4.8193,4.8191,4.8194,4.8199,4.82,4.8201,4.8201,4.8192,4.8192,4.8188,4.8188,4.8188]}]]